[[{"header":{"parameterUnit":"m.s-1","parameterCategory":1,"la1":30.2992,"la2":30.254,"lo1":-89.0895,"lo2":-89.0443,"dy":0.0025,"dx":0.0025,"nx":19,"ny":19,"refTime":"2026-03-31T21:00:00:Z","depth":0,"parameterNumber":2,"parameterNumberName":"U-component_of_WINDS"},"data":[0,0,0,-4.6098,-4.6101,-4.6227,-4.6228,-4.6397,-4.6399,0,0,0,0,0,0,0,0,0,0,0,-4.6067,-4.6068,-4.6098,-4.6102,-4.6227,-4.6228,-4.6397,-4.6399,0,0,0,0,0,0,0,0,0,0,0,-4.6066,-4.6068,-4.607,-4.6102,-4.6227,-4.6228,-4.6397,-4.6298,0,0,0,0,0,0,0,0,0,0,-4.6174,-4.6151,-4.6068,-4.607,-4.6103,-4.6227,-4.6228,-4.6293,-4.6304,-4.6344,0,-4.6382,0,-4.6393,-4.6411,-4.6412,0,0,0,-4.6097,-4.6142,-4.6171,-4.607,-4.6104,-4.6227,-4.6169,-4.63,-4.6312,-4.6359,-4.6384,-4.639,-4.6396,-4.6412,-4.6413,-4.666,-4.6661,0,0,-4.609,-4.6092,-4.6163,-4.618,-4.6162,-4.6165,-4.6173,-4.6307,-4.6334,-4.6385,-4.6394,-4.6399,-4.6413,-4.6415,-4.6658,-4.666,0,0,0,-4.6073,-4.6088,-4.6113,-4.6173,-4.6195,-4.6169,-4.6178,-4.6328,-4.6336,-4.6396,-4.6401,-4.6414,-4.6416,-4.6657,-4.6659,-4.6729,0,0,0,-4.6069,-4.6078,-4.611,-4.6113,-4.6193,-4.6263,-4.6197,-4.6327,-4.6342,-4.64,-4.6414,-4.6418,-4.6655,-4.6658,-4.6724,-4.6761,0,0,0,-4.6057,-4.6077,-4.6097,-4.6113,-4.6168,-4.6261,-4.6277,-4.633,-4.6346,-4.6412,-4.6419,-4.6654,-4.6658,-4.6719,-4.6753,-4.6826,0,0,0,-4.6044,-4.6157,-4.6098,-4.6226,-4.6167,-4.6305,-4.6276,-4.6378,-4.6443,-4.6415,-4.6656,-4.6659,-4.6718,-4.6749,-4.6821,-4.6886,-4.6914,0,0,-4.6188,-4.6175,-4.625,-4.6201,-4.635,-4.6285,-4.6444,-4.6501,-4.6504,-4.6607,-4.6613,-4.6726,-4.6753,-4.6825,-4.7073,-4.7095,0,0,0,-4.6296,-4.635,-4.6389,-4.6452,-4.6499,-4.6542,-4.6574,-4.6595,-4.6683,-4.6558,-4.6772,-4.6788,-4.683,-4.6861,-4.688,-4.6915,-4.6674,-4.6673,-4.6673,-4.6502,-4.6501,-4.6626,-4.6641,-4.6702,-4.6735,-4.6784,-4.6818,-4.6799,-4.685,-4.6879,-4.703,-4.7067,-4.7081,-4.7118,-4.6916,-4.6916,-4.6916,-4.6916,-4.6711,-4.6786,-4.676,-4.6871,-4.687,-4.6962,-4.6999,-4.6983,-4.7068,-4.7008,-4.7045,-4.6977,-4.7105,-4.7137,-4.6922,-4.6921,-4.692,-4.692,-4.6919,-4.6843,-4.6879,-4.6905,-4.6996,-4.7066,-4.7078,-4.7162,-4.7158,-4.7154,-4.7191,-4.7222,-4.722,-4.7217,-4.7207,-4.7207,-4.7208,-4.7208,-4.7209,-4.7209,-4.697,-4.6996,-4.7068,-4.7128,-4.7168,-4.7221,-4.7256,-4.7295,-4.7337,-4.7328,-4.7328,-4.7303,-4.7119,-4.7071,-4.7217,-4.7215,-4.7214,-4.7214,-4.7213,-4.7178,-4.7131,-4.7241,-4.7282,-4.7352,-4.7422,-4.7417,-4.7498,-4.7529,-4.7571,-4.7539,-4.7404,-4.7389,-4.7374,-4.7335,-4.754,-4.754,-4.754,-4.754,-4.7288,-4.7282,-4.7393,-4.7458,-4.7521,-4.7529,-4.7652,-4.7682,-4.7704,-4.7723,-4.7694,-4.7642,-4.7627,-4.7621,-4.7601,-4.7564,-4.7822,-4.7822,-4.7823,-4.7416,-4.7415,-4.7521,-4.7544,-4.7599,-4.7647,-4.7763,-4.7837,-4.7853,-4.7834,-4.7738,-4.7726,-4.7643,-4.7616,-4.7592,-4.756,-4.7492,0,0]},{"header":{"parameterUnit":"m.s-1","parameterCategory":1,"la1":30.2992,"la2":30.254,"lo1":-89.0895,"lo2":-89.0443,"dy":0.0025,"dx":0.0025,"nx":19,"ny":19,"refTime":"2026-03-31T21:00:00:Z","depth":0,"parameterNumber":3,"parameterNumberName":"V-component_of_WINDS"},"data":[0,0,0,3.6993,3.6993,3.7015,3.7015,3.7056,3.7057,0,0,0,0,0,0,0,0,0,0,0,3.6994,3.6995,3.6993,3.6993,3.7015,3.7015,3.7056,3.7057,0,0,0,0,0,0,0,0,0,0,0,3.6994,3.6994,3.6995,3.6994,3.7015,3.7015,3.7056,3.7035,0,0,0,0,0,0,0,0,0,0,3.7011,3.702,3.6994,3.6995,3.6994,3.7015,3.7015,3.7034,3.7036,3.7052,0,3.7068,0,3.7063,3.7061,3.7061,0,0,0,3.6987,3.7018,3.7017,3.6995,3.6994,3.7015,3.7004,3.7035,3.7038,3.7056,3.7069,3.707,3.7064,3.7061,3.7061,3.7173,3.7174,0,0,3.6986,3.7002,3.7015,3.7019,3.7017,3.7003,3.7005,3.7037,3.7052,3.7069,3.7071,3.7065,3.7061,3.7062,3.7173,3.7174,0,0,0,3.6987,3.7001,3.6999,3.7018,3.7021,3.7004,3.7006,3.705,3.7048,3.7071,3.7065,3.7062,3.7062,3.7172,3.7173,3.7229,0,0,0,3.6986,3.7002,3.6999,3.7009,3.7021,3.7036,3.7019,3.7046,3.7049,3.7065,3.7062,3.7063,3.7171,3.7172,3.7226,3.7254,0,0,0,3.699,3.7002,3.7008,3.701,3.702,3.7035,3.7035,3.7046,3.7046,3.7061,3.7063,3.717,3.7172,3.7223,3.7248,3.7289,0,0,0,3.6999,3.7056,3.7009,3.7072,3.702,3.707,3.7034,3.707,3.709,3.7062,3.7171,3.7173,3.7222,3.7245,3.7286,3.7327,3.7345,0,0,3.708,3.7067,3.7102,3.7061,3.7123,3.7065,3.7136,3.7138,3.7124,3.7158,3.716,3.7227,3.7248,3.7288,3.7441,3.7455,0,0,0,3.7134,3.716,3.7173,3.7192,3.7196,3.7202,3.7191,3.7192,3.722,3.7145,3.7251,3.7263,3.7287,3.7306,3.7318,3.7338,3.7182,3.7182,3.7181,3.7272,3.7253,3.7311,3.7295,3.7314,3.7304,3.7318,3.7318,3.7291,3.7317,3.7327,3.7422,3.7445,3.7454,3.7475,3.7346,3.7346,3.7347,3.7347,3.7391,3.7426,3.7391,3.7435,3.7414,3.7451,3.7444,3.7424,3.7456,3.7412,3.7432,3.7387,3.7471,3.7488,3.7351,3.735,3.735,3.7349,3.7349,3.7481,3.7494,3.7495,3.7523,3.7546,3.7527,3.756,3.7539,3.752,3.7539,3.7549,3.7548,3.7546,3.7545,3.7545,3.7546,3.7546,3.7546,3.7547,3.7574,3.7573,3.7604,3.7614,3.7625,3.7637,3.7628,3.7638,3.7644,3.7626,3.7626,3.7599,3.7482,3.7455,3.7552,3.7551,3.755,3.755,3.7549,3.7704,3.7672,3.7719,3.773,3.7741,3.7767,3.7741,3.7763,3.7769,3.7786,3.7754,3.7671,3.7656,3.7645,3.7622,3.7757,3.7757,3.7757,3.7757,3.7781,3.7772,3.7816,3.7836,3.7852,3.7834,3.7889,3.7883,3.7871,3.7874,3.7851,3.7818,3.7809,3.7799,3.7785,3.7764,3.7931,3.7931,3.7931,3.7861,3.7853,3.7903,3.7893,3.79,3.7907,3.7959,3.7983,3.7963,3.7938,3.7876,3.7868,3.7815,3.7798,3.7773,3.7752,3.7712,0,0]}]]